OPS 4682 DEB, 14715

Orbit data source: Space-Track

OPS 4682 DEB, 14715 is space debris in LEO originally from a launch on Sat, 03 Apr 1965 UTC launched from the Air Force Western Test Range (AFWTR). Debris objects in space refer to the collection of defunct objects orbiting the Earth. Examples of debris include non-operational satellites, rocket bodies, and fragments generated from explosions, collisions, or faulty payload assembly.

Loading next visibility...
Identifier
14715, 1965-027N
Orbit
LEO
Country
Flag of USUS
Related business
Manufacturer
Unknown
Mission
Spacecraft
Bus & Motor
Unknown
Mass
Unknown
Launch date (UTC)
1965-04-03 (61 years ago)
Launch vehicle
Unknown
Launch site
Air Force Western Test Range (AFWTR)
Object type
Payload
Rocket body
Debris
Shape & HBR
Unknown shape, 0.1 m
Radar Cross Section
Small (<0.1 m²)

Expand to show TLE details & history
Last TLE update: 1 week ago

TLE from 1 week ago
0 OPS 4682 DEB
1 14715U 65027N   25334.29669093  .00000012  00000-0  18761-4 0  9999
2 14715  90.2304 344.7661 0037989 301.8372  82.9900 12.96607895983167
Epoch: 2025-11-30T07:07Z
TLE epoch observation values (Epoch: 2025-11-30T07:07:14.096Z)
Latitude
25.28564°
Longitude
168.4365°
Altitude
1,275.023 km
Speed
7.222 km/s
True Right ascension
22h 58m 37s
True Declination
25° 09' 43"
Sunlit
Object was in daylight at epoch
Visualization orbit readout
Latitude
Unknown
Longitude
Unknown
Altitude
Unknown
Speed
Unknown
Apparent Right ascension
Unknown
Apparent Declination
Unknown
Sunlit
N/A
Visualization observer readout
Local Sidereal Time
15:16:37
Azimuth
Unknown
Elevation
Unknown
Doppler factor
Unknown
Orbital elements
Apogee altitude
1,301.602 km
Perigee altitude
1,243.474 km
Semi-major axis
7,650.675 km
Eccentricity
0.0038
Inclination
90.2304°
RAAN
344.7661°
Arg. of periapsis
301.8372°
True anomaly
83.42231°
Mean anomaly
82.99°
Eccentric anomaly
83.20613°
Mean motion
3.24335 °/min
Orbital period
111 mins
BSTAR
0.000018761
Loading maneuver chart data...
Computing Atmospheric mass density...
Loading historical data...
Loading historical data...
Loading historical data...
Loading historical data...
Loading historical data...
Loading historical data...
Loading historical data...

Documentation

Showing up to 5 results
|